This is the latest recevied weather packets stored in our database for station/object KH6DH-13. If no packets are shown the sender has not sent any weather packets the latest 10 day(s).
| Time | Temp. | Humidity | Pressure | Rain* | Wind** | Luminosity | Snow |
|---|---|---|---|---|---|---|---|
| 1788603621 | 25.56° C | - | - | 0 mm | 0.89 m/s, 25° | - | - |
| 1788603049 | 25° C | - | - | 0 mm | 0.89 m/s, 122° | - | - |
| 1788602419 | 25.56° C | - | - | 0 mm | 3.58 m/s, 105° | - | - |
| 1788601818 | 25° C | - | - | 0 mm | 2.24 m/s, 359° | - | - |
| 1788601217 | 25° C | - | - | 0 mm | 1.79 m/s, 27° | - | - |
| 1788600616 | 25° C | - | - | 0 mm | 1.79 m/s, 34° | - | - |
| 1788600015 | 25° C | - | - | 0 mm | 0 m/s | - | - |
| 1788599414 | 25° C | - | - | 0 mm | 1.79 m/s, 53° | - | - |
| 1788598813 | 25.56° C | - | - | 0 mm | 1.79 m/s, 13° | - | - |
| 1788598211 | 25° C | - | - | 0 mm | 1.34 m/s, 100° | - | - |
| 1788597610 | 25.56° C | - | - | 0 mm | 1.79 m/s, 148° | - | - |
| 1788597009 | 25° C | - | - | 0 mm | 1.79 m/s, 103° | - | - |
| 1788596408 | 25° C | - | - | 0 mm | 1.79 m/s, 354° | - | - |
| 1788595807 | 25° C | - | - | 0 mm | 3.13 m/s, 23° | - | - |
| 1788595202 | 25.56° C | - | - | 0 mm | 0.89 m/s, 4° | - | - |
| 1788594605 | 25.56° C | - | - | 0 mm | 0.89 m/s, 359° | - | - |
| 1788594000 | 25° C | - | - | 0 mm | 0.89 m/s, 45° | - | - |
| 1788593399 | 25.56° C | - | - | 0 mm | 2.24 m/s, 70° | - | - |
| 1788592819 | 25° C | - | - | 0 mm | 1.79 m/s, 352° | - | - |
| 1788592197 | 25.56° C | - | - | 0 mm | 3.13 m/s, 11° | - | - |
| 1788591596 | 26.11° C | - | - | 0 mm | 2.68 m/s, 24° | - | - |
| 1788590991 | 25.56° C | - | - | 0 mm | 0.45 m/s, 18° | - | - |
| 1788590390 | 25.56° C | - | - | 0 mm | 1.34 m/s, 132° | - | - |
| 1788589789 | 25.56° C | - | - | 0 mm | 2.24 m/s, 359° | - | - |
| 1788589188 | 25.56° C | - | - | 0 mm | 2.24 m/s, 51° | - | - |
* Rain latest hour (hover to see other rain measurements)
** Current wind speed in m/s (hover to see current wind gust speed)